カタログに戻る

YAOGAN 9B

運用中軍事LEO
NORAD 36414·PAYLOAD·🇨🇳 China

打ち上げ Mar 5, 2010 から Jiuquan Satellite Launch Center

Loading…

次のパス (今後24時間)

TLE

最新Source: Space-Track

元期: Sep 14, 2026, 15:33 UTC

1 36414U 10009B   26257.64857244  .00000012  00000-0  71298-4 0  9994
2 36414  63.3636 126.3260 0546005  21.6130 340.7009 13.45724539811781

AllMySatでYAOGAN 9Bをリアルタイム追跡

Download on the App Store